Year,Month,Day,Hour,Minute,Value (Times are PST for windspeed in km/hr)
2016,08,22,00,00,19.90
2016,08,22,00,01,19.10
2016,08,22,00,02,19.00
2016,08,22,00,03,18.70
2016,08,22,00,04,22.70
2016,08,22,00,05,16.10
2016,08,22,00,06,19.50
2016,08,22,00,07,17.00
2016,08,22,00,08,16.90
2016,08,22,00,09,19.00
2016,08,22,00,10,18.60
2016,08,22,00,11,16.50
2016,08,22,00,12,25.00
2016,08,22,00,13,19.90
2016,08,22,00,14,20.10
2016,08,22,00,15,21.50
2016,08,22,00,16,19.30
2016,08,22,00,17,21.90
2016,08,22,00,18,18.20
2016,08,22,00,19,17.80
2016,08,22,00,20,19.80
2016,08,22,00,21,17.50
2016,08,22,00,22,19.70
2016,08,22,00,23,19.20
2016,08,22,00,24,15.30
2016,08,22,00,25,13.30
2016,08,22,00,26,16.30
2016,08,22,00,27,16.10
2016,08,22,00,28,15.30
2016,08,22,00,29,15.60
2016,08,22,00,30,17.20
2016,08,22,00,31,16.70
2016,08,22,00,32,17.30
2016,08,22,00,33,17.60
2016,08,22,00,34,17.50
2016,08,22,00,35,15.40
2016,08,22,00,36,13.10
2016,08,22,00,37,12.90
2016,08,22,00,38,12.50
2016,08,22,00,39,20.60
2016,08,22,00,40,17.20
2016,08,22,00,41,16.00
2016,08,22,00,42,14.70
2016,08,22,00,43,11.60
2016,08,22,00,44,12.90
2016,08,22,00,45,12.10
2016,08,22,00,46,11.30
2016,08,22,00,47,11.40
2016,08,22,00,48,14.70
2016,08,22,00,49,15.10
2016,08,22,00,50,13.00
2016,08,22,00,51,11.90
2016,08,22,00,52,10.50
2016,08,22,00,53,12.80
2016,08,22,00,54,12.70
2016,08,22,00,55,11.40
2016,08,22,00,56,12.90
2016,08,22,00,57,12.90
2016,08,22,00,58,11.00
2016,08,22,00,59,8.50
2016,08,22,01,00,6.20
2016,08,22,01,01,5.40
2016,08,22,01,02,6.60
2016,08,22,01,03,6.70
2016,08,22,01,04,7.40
2016,08,22,01,05,6.80
2016,08,22,01,06,7.00
2016,08,22,01,07,9.00
2016,08,22,01,08,5.40
2016,08,22,01,09,7.50
2016,08,22,01,10,10.40
2016,08,22,01,11,9.70
2016,08,22,01,12,8.30
2016,08,22,01,13,8.90
2016,08,22,01,14,8.10
2016,08,22,01,15,7.90
2016,08,22,01,16,8.80
2016,08,22,01,17,12.80
2016,08,22,01,18,11.10
2016,08,22,01,19,10.60
2016,08,22,01,20,12.30
2016,08,22,01,21,12.50
2016,08,22,01,22,11.40
2016,08,22,01,23,13.80
2016,08,22,01,24,12.20
2016,08,22,01,25,11.70
2016,08,22,01,26,14.00
2016,08,22,01,27,13.40
2016,08,22,01,28,13.50
2016,08,22,01,29,13.00
2016,08,22,01,30,12.90
2016,08,22,01,31,12.60
2016,08,22,01,32,11.20
2016,08,22,01,33,8.00
2016,08,22,01,34,9.70
2016,08,22,01,35,10.80
2016,08,22,01,36,7.50
2016,08,22,01,37,10.30
2016,08,22,01,38,10.90
2016,08,22,01,39,10.50
2016,08,22,01,40,11.10
2016,08,22,01,41,9.80
2016,08,22,01,42,8.40
2016,08,22,01,43,9.00
2016,08,22,01,44,11.00
2016,08,22,01,45,10.20
2016,08,22,01,46,9.20
2016,08,22,01,47,7.60
2016,08,22,01,48,6.60
2016,08,22,01,49,11.10
2016,08,22,01,50,12.00
2016,08,22,01,51,12.10
2016,08,22,01,52,10.20
2016,08,22,01,53,8.80
2016,08,22,01,54,10.50
2016,08,22,01,55,9.50
2016,08,22,01,56,10.10
2016,08,22,01,57,8.60
2016,08,22,01,58,7.50
2016,08,22,01,59,11.10
2016,08,22,02,00,9.80
2016,08,22,02,01,9.80
2016,08,22,02,02,13.80
2016,08,22,02,03,6.30
2016,08,22,02,04,5.50
2016,08,22,02,05,5.50
2016,08,22,02,06,7.00
2016,08,22,02,07,3.30
2016,08,22,02,08,5.30
2016,08,22,02,09,4.90
2016,08,22,02,10,6.40
2016,08,22,02,11,6.10
2016,08,22,02,12,6.30
2016,08,22,02,13,5.50
2016,08,22,02,14,3.30
2016,08,22,02,15,3.90
2016,08,22,02,16,4.20
2016,08,22,02,17,1.40
2016,08,22,02,18,6.90
2016,08,22,02,19,6.10
2016,08,22,02,20,7.00
2016,08,22,02,21,8.80
2016,08,22,02,22,8.30
2016,08,22,02,23,5.90
2016,08,22,02,24,7.20
2016,08,22,02,25,8.40
2016,08,22,02,26,8.90
2016,08,22,02,27,6.10
2016,08,22,02,28,4.30
2016,08,22,02,29,4.10
2016,08,22,02,30,4.50
2016,08,22,02,31,5.50
2016,08,22,02,32,4.90
2016,08,22,02,33,3.80
2016,08,22,02,34,2.90
2016,08,22,02,35,3.40
2016,08,22,02,36,3.00
2016,08,22,02,37,5.20
2016,08,22,02,38,5.20
2016,08,22,02,39,4.50
2016,08,22,02,40,6.30
2016,08,22,02,41,6.10
2016,08,22,02,42,6.40
2016,08,22,02,43,6.10
2016,08,22,02,44,6.60
2016,08,22,02,45,7.00
2016,08,22,02,46,6.00
2016,08,22,02,47,6.10
2016,08,22,02,48,4.00
2016,08,22,02,49,8.10
2016,08,22,02,50,5.40
2016,08,22,02,51,5.60
2016,08,22,02,52,6.60
2016,08,22,02,53,7.20
2016,08,22,02,54,6.60
2016,08,22,02,55,6.40
2016,08,22,02,56,7.10
2016,08,22,02,57,7.10
2016,08,22,02,58,7.60
2016,08,22,02,59,6.40
2016,08,22,03,00,4.80
2016,08,22,03,01,4.50
2016,08,22,03,02,5.40
2016,08,22,03,03,5.50
2016,08,22,03,04,5.80
2016,08,22,03,05,6.00
2016,08,22,03,06,4.90
2016,08,22,03,07,3.20
2016,08,22,03,08,4.80
2016,08,22,03,09,1.40
2016,08,22,03,10,0.70
2016,08,22,03,11,0.90
2016,08,22,03,12,0.40
2016,08,22,03,13,0.50
2016,08,22,03,14,0.00
2016,08,22,03,15,0.00
2016,08,22,03,16,0.00
2016,08,22,03,17,0.30
2016,08,22,03,18,2.70
2016,08,22,03,19,4.30
2016,08,22,03,20,3.90
2016,08,22,03,21,4.90
2016,08,22,03,22,6.70
2016,08,22,03,23,6.40
2016,08,22,03,24,7.00
2016,08,22,03,25,9.40
2016,08,22,03,26,10.60
2016,08,22,03,27,7.80
2016,08,22,03,28,7.60
2016,08,22,03,29,9.40
2016,08,22,03,30,6.40
2016,08,22,03,31,9.80
2016,08,22,03,32,9.50
2016,08,22,03,33,10.10
2016,08,22,03,34,10.00
2016,08,22,03,35,11.50
2016,08,22,03,36,10.40
2016,08,22,03,37,10.80
2016,08,22,03,38,10.00
2016,08,22,03,39,9.60
2016,08,22,03,40,9.00
2016,08,22,03,41,8.60
2016,08,22,03,42,9.60
2016,08,22,03,43,11.70
2016,08,22,03,44,10.60
2016,08,22,03,45,11.60
2016,08,22,03,46,10.70
2016,08,22,03,47,10.40
2016,08,22,03,48,12.70
2016,08,22,03,49,11.90
2016,08,22,03,50,11.30
2016,08,22,03,51,11.10
2016,08,22,03,52,10.50
2016,08,22,03,53,9.50
2016,08,22,03,54,7.60
2016,08,22,03,55,9.00
2016,08,22,03,56,9.70
2016,08,22,03,57,10.70
2016,08,22,03,58,8.60
2016,08,22,03,59,7.70
2016,08,22,04,00,8.00
2016,08,22,04,01,8.30
2016,08,22,04,02,6.40
2016,08,22,04,03,7.60
2016,08,22,04,04,7.30
2016,08,22,04,05,6.90
2016,08,22,04,06,5.40
2016,08,22,04,07,5.10
2016,08,22,04,08,4.60
2016,08,22,04,09,4.50
2016,08,22,04,10,3.90
2016,08,22,04,11,4.20
2016,08,22,04,12,3.00
2016,08,22,04,13,3.90
2016,08,22,04,14,4.20
2016,08,22,04,15,4.20
2016,08,22,04,16,4.00
2016,08,22,04,17,4.00
2016,08,22,04,18,4.60
2016,08,22,04,19,4.60
2016,08,22,04,20,4.30
2016,08,22,04,21,4.40
2016,08,22,04,22,4.80
2016,08,22,04,23,5.60
2016,08,22,04,24,5.00
2016,08,22,04,25,5.60
2016,08,22,04,26,4.50
2016,08,22,04,27,4.90
2016,08,22,04,28,5.00
2016,08,22,04,29,4.10
2016,08,22,04,30,3.40
2016,08,22,04,31,3.30
2016,08,22,04,32,3.70
2016,08,22,04,33,3.20
2016,08,22,04,34,1.70
2016,08,22,04,35,3.50
2016,08,22,04,36,3.40
2016,08,22,04,37,1.90
2016,08,22,04,38,0.50
2016,08,22,04,39,2.50
2016,08,22,04,40,3.30
2016,08,22,04,41,4.90
2016,08,22,04,42,6.40
2016,08,22,04,43,6.40
2016,08,22,04,44,4.00
2016,08,22,04,45,2.70
2016,08,22,04,46,2.70
2016,08,22,04,47,5.40
2016,08,22,04,48,5.20
2016,08,22,04,49,5.90
2016,08,22,04,50,5.40
2016,08,22,04,51,7.00
2016,08,22,04,52,7.50
2016,08,22,04,53,8.60
2016,08,22,04,54,8.30
2016,08,22,04,55,6.90
2016,08,22,04,56,5.90
2016,08,22,04,57,6.70
2016,08,22,04,58,6.10
2016,08,22,04,59,6.00
2016,08,22,05,00,5.50
2016,08,22,05,01,5.80
2016,08,22,05,02,5.80
2016,08,22,05,03,7.90
2016,08,22,05,04,5.90
2016,08,22,05,05,7.20
2016,08,22,05,06,7.20
2016,08,22,05,07,8.20
2016,08,22,05,08,8.80
2016,08,22,05,09,10.40
2016,08,22,05,10,9.60
2016,08,22,05,11,8.20
2016,08,22,05,12,8.80
2016,08,22,05,13,10.20
2016,08,22,05,14,7.70
2016,08,22,05,15,7.20
2016,08,22,05,16,6.60
2016,08,22,05,17,5.20
2016,08,22,05,18,5.00
2016,08,22,05,19,6.00
2016,08,22,05,20,5.30
2016,08,22,05,21,6.10
2016,08,22,05,22,7.00
2016,08,22,05,23,7.70
2016,08,22,05,24,7.10
2016,08,22,05,25,8.20
2016,08,22,05,26,4.60
2016,08,22,05,27,4.50
2016,08,22,05,28,3.40
2016,08,22,05,29,5.70
2016,08,22,05,30,4.00
2016,08,22,05,31,3.90
2016,08,22,05,32,5.30
2016,08,22,05,33,3.90
2016,08,22,05,34,3.90
2016,08,22,05,35,4.80
2016,08,22,05,36,3.40
2016,08,22,05,37,3.30
2016,08,22,05,38,4.90
2016,08,22,05,39,6.70
2016,08,22,05,40,6.30
2016,08,22,05,41,7.40
2016,08,22,05,42,8.30
2016,08,22,05,43,11.40
2016,08,22,05,44,11.50
2016,08,22,05,45,10.00
2016,08,22,05,46,7.30
2016,08,22,05,47,10.10
2016,08,22,05,48,7.70
2016,08,22,05,49,9.40
2016,08,22,05,50,9.20
2016,08,22,05,51,9.70
2016,08,22,05,52,10.90
2016,08,22,05,53,11.10
2016,08,22,05,54,13.90
2016,08,22,05,55,12.10
2016,08,22,05,56,11.30
2016,08,22,05,57,11.60
2016,08,22,05,58,11.60
2016,08,22,05,59,11.30
2016,08,22,06,00,7.20
2016,08,22,06,01,9.10
2016,08,22,06,02,9.10
2016,08,22,06,03,8.30
2016,08,22,06,04,5.70
2016,08,22,06,05,7.80
2016,08,22,06,06,7.30
2016,08,22,06,07,6.90
2016,08,22,06,08,6.90
2016,08,22,06,09,7.40
2016,08,22,06,10,7.90
2016,08,22,06,11,7.60
2016,08,22,06,12,7.70
2016,08,22,06,13,7.70
2016,08,22,06,14,7.60
2016,08,22,06,15,6.40
2016,08,22,06,16,9.50
2016,08,22,06,17,10.60
2016,08,22,06,18,13.20
2016,08,22,06,19,12.00
2016,08,22,06,20,13.50
2016,08,22,06,21,14.60
2016,08,22,06,22,12.30
2016,08,22,06,23,14.40
2016,08,22,06,24,11.30
2016,08,22,06,25,13.10
2016,08,22,06,26,14.60
2016,08,22,06,27,10.70
2016,08,22,06,28,11.90
2016,08,22,06,29,11.20
2016,08,22,06,30,11.00
2016,08,22,06,31,8.60
2016,08,22,06,32,6.40
2016,08,22,06,33,10.40
2016,08,22,06,34,8.40
2016,08,22,06,35,9.20
2016,08,22,06,36,9.40
2016,08,22,06,37,10.70
2016,08,22,06,38,8.80
2016,08,22,06,39,10.10
2016,08,22,06,40,11.10
2016,08,22,06,41,6.20
2016,08,22,06,42,9.10
2016,08,22,06,43,12.70
2016,08,22,06,44,10.70
2016,08,22,06,45,11.70
2016,08,22,06,46,10.70
2016,08,22,06,47,12.50
2016,08,22,06,48,13.20
2016,08,22,06,49,10.00
2016,08,22,06,50,11.80
2016,08,22,06,51,11.90
2016,08,22,06,52,13.20
2016,08,22,06,53,10.30
2016,08,22,06,54,10.20
2016,08,22,06,55,10.90
2016,08,22,06,56,8.60
2016,08,22,06,57,10.10
2016,08,22,06,58,8.20
2016,08,22,06,59,6.70
2016,08,22,07,00,8.90
2016,08,22,07,01,7.90
2016,08,22,07,02,5.20
2016,08,22,07,03,3.90
2016,08,22,07,04,5.30
2016,08,22,07,05,4.60
2016,08,22,07,06,4.60
2016,08,22,07,07,5.40
2016,08,22,07,08,6.40
2016,08,22,07,09,4.90
2016,08,22,07,10,5.10
2016,08,22,07,11,7.40
2016,08,22,07,12,6.10
2016,08,22,07,13,4.80
2016,08,22,07,14,4.60
2016,08,22,07,15,6.90
2016,08,22,07,16,10.50
2016,08,22,07,17,9.40
2016,08,22,07,18,12.30
2016,08,22,07,19,10.90
2016,08,22,07,20,10.90
2016,08,22,07,21,13.30
2016,08,22,07,22,13.20
2016,08,22,07,23,12.60
2016,08,22,07,24,12.90
2016,08,22,07,25,12.30
2016,08,22,07,26,11.50
2016,08,22,07,27,11.20
2016,08,22,07,28,11.90
2016,08,22,07,29,15.50
2016,08,22,07,30,13.20
2016,08,22,07,31,14.40
2016,08,22,07,32,14.80
2016,08,22,07,33,12.80
2016,08,22,07,34,12.90
2016,08,22,07,35,16.90
2016,08,22,07,36,15.90
2016,08,22,07,37,12.30
2016,08,22,07,38,10.70
2016,08,22,07,39,12.80
2016,08,22,07,40,11.40
2016,08,22,07,41,13.00
2016,08,22,07,42,15.20
2016,08,22,07,43,13.50
2016,08,22,07,44,13.70
2016,08,22,07,45,10.90
2016,08,22,07,46,10.40
2016,08,22,07,47,10.70
2016,08,22,07,48,6.60
2016,08,22,07,49,8.50
2016,08,22,07,50,10.70
2016,08,22,07,51,10.10
2016,08,22,07,52,8.20
2016,08,22,07,53,6.70
2016,08,22,07,54,7.30
2016,08,22,07,55,7.90
2016,08,22,07,56,5.60
2016,08,22,07,57,6.40
2016,08,22,07,58,6.10
2016,08,22,07,59,8.10
2016,08,22,08,00,4.80
2016,08,22,08,01,7.00
2016,08,22,08,02,4.30
2016,08,22,08,03,6.90
2016,08,22,08,04,8.10
2016,08,22,08,05,6.80
2016,08,22,08,06,9.00
2016,08,22,08,07,8.30
2016,08,22,08,08,8.40
2016,08,22,08,09,6.20
2016,08,22,08,10,8.00
2016,08,22,08,11,6.30
2016,08,22,08,12,7.20
2016,08,22,08,13,7.70
2016,08,22,08,14,6.60
2016,08,22,08,15,3.80
2016,08,22,08,16,7.60
2016,08,22,08,17,7.40
2016,08,22,08,18,6.40
2016,08,22,08,19,8.50
2016,08,22,08,20,6.10
2016,08,22,08,21,8.70
2016,08,22,08,22,10.10
2016,08,22,08,23,6.00
2016,08,22,08,24,9.00
2016,08,22,08,25,4.60
2016,08,22,08,26,4.80
2016,08,22,08,27,6.90
2016,08,22,08,28,7.70
2016,08,22,08,29,6.00
2016,08,22,08,30,7.80
2016,08,22,08,31,7.50
2016,08,22,08,32,5.80
2016,08,22,08,33,5.20
2016,08,22,08,34,5.90
2016,08,22,08,35,4.00
2016,08,22,08,36,5.70
2016,08,22,08,37,7.00
2016,08,22,08,38,5.60
2016,08,22,08,39,7.60
2016,08,22,08,40,9.80
2016,08,22,08,41,7.10
2016,08,22,08,42,8.20
2016,08,22,08,43,10.00
2016,08,22,08,44,11.60
2016,08,22,08,45,12.50
2016,08,22,08,46,7.50
2016,08,22,08,47,5.40
2016,08,22,08,48,6.80
2016,08,22,08,49,6.60
2016,08,22,08,50,9.40
2016,08,22,08,51,9.70
2016,08,22,08,52,8.30
2016,08,22,08,53,6.80
2016,08,22,08,54,5.20
2016,08,22,08,55,5.70
2016,08,22,08,56,9.80
2016,08,22,08,57,7.50
2016,08,22,08,58,10.20
2016,08,22,08,59,16.40
2016,08,22,09,00,15.60
2016,08,22,09,01,11.60
2016,08,22,09,02,14.60
2016,08,22,09,03,9.90
2016,08,22,09,04,12.20
2016,08,22,09,05,11.60
2016,08,22,09,06,12.00
2016,08,22,09,07,13.50
2016,08,22,09,08,9.20
2016,08,22,09,09,10.30
2016,08,22,09,10,12.70
2016,08,22,09,11,14.20
2016,08,22,09,12,17.10
2016,08,22,09,13,11.00
2016,08,22,09,14,11.00
2016,08,22,09,15,11.40
2016,08,22,09,16,14.30
2016,08,22,09,17,16.50
2016,08,22,09,18,13.50
2016,08,22,09,19,13.70
2016,08,22,09,20,15.00
2016,08,22,09,21,11.60
2016,08,22,09,22,18.70
2016,08,22,09,23,16.20
2016,08,22,09,24,15.70
2016,08,22,09,25,19.30
2016,08,22,09,26,15.40
2016,08,22,09,27,11.90
2016,08,22,09,28,11.20
2016,08,22,09,29,16.10
2016,08,22,09,30,17.80
2016,08,22,09,31,13.10
2016,08,22,09,32,14.30
2016,08,22,09,33,11.10
2016,08,22,09,34,17.90
2016,08,22,09,35,18.50
2016,08,22,09,36,9.00
2016,08,22,09,37,13.70
2016,08,22,09,38,13.10
2016,08,22,09,39,16.60
2016,08,22,09,40,19.30
2016,08,22,09,41,14.80
2016,08,22,09,42,15.30
2016,08,22,09,43,9.30
2016,08,22,09,44,10.70
2016,08,22,09,45,16.60
2016,08,22,09,46,21.60
2016,08,22,09,47,13.20
2016,08,22,09,48,16.10
2016,08,22,09,49,12.80
2016,08,22,09,50,11.80
2016,08,22,09,51,13.50
2016,08,22,09,52,12.80
2016,08,22,09,53,16.50
2016,08,22,09,54,14.70
2016,08,22,09,55,12.10
2016,08,22,09,56,15.60
2016,08,22,09,57,15.60
2016,08,22,09,58,17.20
2016,08,22,09,59,12.40
2016,08,22,10,00,14.50
2016,08,22,10,01,14.10
2016,08,22,10,02,18.70
2016,08,22,10,03,14.80
2016,08,22,10,04,15.40
2016,08,22,10,05,15.20
2016,08,22,10,06,15.70
2016,08,22,10,07,15.20
2016,08,22,10,08,13.30
2016,08,22,10,09,17.90
2016,08,22,10,10,18.50
2016,08,22,10,11,15.00
2016,08,22,10,12,13.00
2016,08,22,10,13,17.30
2016,08,22,10,14,13.50
2016,08,22,10,15,6.70
2016,08,22,10,16,18.40
2016,08,22,10,17,8.50
2016,08,22,10,18,12.00
2016,08,22,10,19,17.40
2016,08,22,10,20,17.10
2016,08,22,10,21,13.70
2016,08,22,10,22,11.40
2016,08,22,10,23,23.60
2016,08,22,10,24,16.40
2016,08,22,10,25,15.10
2016,08,22,10,26,20.20
2016,08,22,10,27,18.50
2016,08,22,10,28,16.40
2016,08,22,10,29,17.80
2016,08,22,10,30,16.30
2016,08,22,10,31,18.70
2016,08,22,10,32,16.10
2016,08,22,10,33,11.90
2016,08,22,10,34,8.90
2016,08,22,10,35,9.20
2016,08,22,10,36,14.20
2016,08,22,10,37,16.60
2016,08,22,10,38,17.00
2016,08,22,10,39,15.40
2016,08,22,10,40,17.30
2016,08,22,10,41,8.80
2016,08,22,10,42,12.30
2016,08,22,10,43,9.60
2016,08,22,10,44,15.20
2016,08,22,10,45,15.80
2016,08,22,10,46,14.00
2016,08,22,10,47,15.00
2016,08,22,10,48,11.30
2016,08,22,10,49,17.30
2016,08,22,10,50,12.30
2016,08,22,10,51,13.50
2016,08,22,10,52,14.40
2016,08,22,10,53,14.70
2016,08,22,10,54,13.00
2016,08,22,10,55,18.90
2016,08,22,10,56,21.90
2016,08,22,10,57,15.90
2016,08,22,10,58,12.60
2016,08,22,10,59,13.20
2016,08,22,11,00,16.10
2016,08,22,11,01,19.70
2016,08,22,11,02,15.40
2016,08,22,11,03,12.50
2016,08,22,11,04,14.90
2016,08,22,11,05,17.50
2016,08,22,11,06,18.20
2016,08,22,11,07,14.30
2016,08,22,11,08,16.60
2016,08,22,11,09,12.90
2016,08,22,11,10,18.40
2016,08,22,11,11,11.90
2016,08,22,11,12,11.00
2016,08,22,11,13,16.20
2016,08,22,11,14,16.20
2016,08,22,11,15,20.00
2016,08,22,11,16,18.20
2016,08,22,11,17,18.50
2016,08,22,11,18,20.90
2016,08,22,11,19,22.10
2016,08,22,11,20,19.00
2016,08,22,11,21,12.80
2016,08,22,11,22,10.80
2016,08,22,11,23,13.80
2016,08,22,11,24,12.70
2016,08,22,11,25,23.40
2016,08,22,11,26,24.90
2016,08,22,11,27,14.20
2016,08,22,11,28,15.40
2016,08,22,11,29,15.10
2016,08,22,11,30,17.70
2016,08,22,11,31,17.20
2016,08,22,11,32,15.70
2016,08,22,11,33,16.70
2016,08,22,11,34,16.90
2016,08,22,11,35,19.00
2016,08,22,11,36,13.10
2016,08,22,11,37,18.50
2016,08,22,11,38,17.40
2016,08,22,11,39,16.50
2016,08,22,11,40,14.70
2016,08,22,11,41,15.10
2016,08,22,11,42,19.00
2016,08,22,11,43,16.10
2016,08,22,11,44,15.60
2016,08,22,11,45,13.70
2016,08,22,11,46,14.10
2016,08,22,11,47,18.10
2016,08,22,11,48,18.80
2016,08,22,11,49,13.70
2016,08,22,11,50,10.20
2016,08,22,11,51,12.30
2016,08,22,11,52,13.90
2016,08,22,11,53,11.00
2016,08,22,11,54,11.20
2016,08,22,11,55,13.30
2016,08,22,11,56,19.70
2016,08,22,11,57,15.30
2016,08,22,11,58,18.90
2016,08,22,11,59,14.10
2016,08,22,12,00,8.10
2016,08,22,12,01,9.00
2016,08,22,12,02,11.50
2016,08,22,12,03,15.00
2016,08,22,12,04,15.90
2016,08,22,12,05,16.80
2016,08,22,12,06,12.40
2016,08,22,12,07,10.30
2016,08,22,12,08,19.00
2016,08,22,12,09,18.00
2016,08,22,12,10,23.70
2016,08,22,12,11,14.50
2016,08,22,12,12,18.60
2016,08,22,12,13,17.10
2016,08,22,12,14,14.70
2016,08,22,12,15,15.40
2016,08,22,12,16,18.40
2016,08,22,12,17,12.00
2016,08,22,12,18,17.10
2016,08,22,12,19,15.60
2016,08,22,12,20,17.90
2016,08,22,12,21,22.50
2016,08,22,12,22,18.00
2016,08,22,12,23,18.40
2016,08,22,12,24,11.80
2016,08,22,12,25,17.10
2016,08,22,12,26,25.10
2016,08,22,12,27,16.70
2016,08,22,12,28,12.70
2016,08,22,12,29,16.20
2016,08,22,12,30,15.80
2016,08,22,12,31,17.90
2016,08,22,12,32,12.70
2016,08,22,12,33,13.90
2016,08,22,12,34,16.90
2016,08,22,12,35,14.70
2016,08,22,12,36,15.00
2016,08,22,12,37,15.50
2016,08,22,12,38,19.20
2016,08,22,12,39,16.70
2016,08,22,12,40,16.30
2016,08,22,12,41,15.00
2016,08,22,12,42,11.10
2016,08,22,12,43,10.30
2016,08,22,12,44,12.50
2016,08,22,12,45,15.20
2016,08,22,12,46,14.50
2016,08,22,12,47,13.60
2016,08,22,12,48,11.70
2016,08,22,12,49,17.70
2016,08,22,12,50,14.20
2016,08,22,12,51,16.70
2016,08,22,12,52,19.80
2016,08,22,12,53,16.20
2016,08,22,12,54,17.90
2016,08,22,12,55,12.20
2016,08,22,12,56,9.80
2016,08,22,12,57,18.50
2016,08,22,12,58,18.10
2016,08,22,12,59,19.90
2016,08,22,13,00,17.00
2016,08,22,13,01,21.60
2016,08,22,13,02,17.20
2016,08,22,13,03,13.10
2016,08,22,13,04,16.80
2016,08,22,13,05,14.90
2016,08,22,13,06,11.10
2016,08,22,13,07,18.00
2016,08,22,13,08,15.70
2016,08,22,13,09,14.20
2016,08,22,13,10,11.30
2016,08,22,13,11,18.70
2016,08,22,13,12,17.80
2016,08,22,13,13,18.30
2016,08,22,13,14,18.50
2016,08,22,13,15,13.80
2016,08,22,13,16,19.60
2016,08,22,13,17,14.80
2016,08,22,13,18,13.50
2016,08,22,13,19,12.80
2016,08,22,13,20,17.70
2016,08,22,13,21,20.00
2016,08,22,13,22,19.10
2016,08,22,13,23,17.80
2016,08,22,13,24,19.00
2016,08,22,13,25,16.80
2016,08,22,13,26,20.50
2016,08,22,13,27,16.60
2016,08,22,13,28,21.50
2016,08,22,13,29,17.80
2016,08,22,13,30,14.20
2016,08,22,13,31,18.70
2016,08,22,13,32,20.50
2016,08,22,13,33,14.10
2016,08,22,13,34,20.20
2016,08,22,13,35,20.40
2016,08,22,13,36,15.10
2016,08,22,13,37,15.30
2016,08,22,13,38,14.70
2016,08,22,13,39,9.10
2016,08,22,13,40,17.30
2016,08,22,13,41,16.30
2016,08,22,13,42,16.40
2016,08,22,13,43,18.20
2016,08,22,13,44,16.60
2016,08,22,13,45,18.40
2016,08,22,13,46,17.20
2016,08,22,13,47,20.60
2016,08,22,13,48,19.80
2016,08,22,13,49,15.40
2016,08,22,13,50,12.70
2016,08,22,13,51,20.10
2016,08,22,13,52,18.70
2016,08,22,13,53,16.70
2016,08,22,13,54,12.50
2016,08,22,13,55,18.40
2016,08,22,13,56,13.80
2016,08,22,13,57,17.10
2016,08,22,13,58,10.80
2016,08,22,13,59,11.90
2016,08,22,14,00,16.90
2016,08,22,14,01,18.70
2016,08,22,14,02,19.60
2016,08,22,14,03,16.20
2016,08,22,14,04,16.60
2016,08,22,14,05,11.70
2016,08,22,14,06,13.20
2016,08,22,14,07,14.80
2016,08,22,14,08,14.80
2016,08,22,14,09,11.70
2016,08,22,14,10,13.10
2016,08,22,14,11,11.20
2016,08,22,14,12,11.90
2016,08,22,14,13,15.10
2016,08,22,14,14,18.50
2016,08,22,14,15,20.70
2016,08,22,14,16,14.20
2016,08,22,14,17,18.30
2016,08,22,14,18,13.80
2016,08,22,14,19,10.80
2016,08,22,14,20,15.80
2016,08,22,14,21,15.60
2016,08,22,14,22,10.90
2016,08,22,14,23,10.40
2016,08,22,14,24,17.40
2016,08,22,14,25,11.90
2016,08,22,14,26,12.60
2016,08,22,14,27,8.80
2016,08,22,14,28,11.20
2016,08,22,14,29,11.90
2016,08,22,14,30,17.50
2016,08,22,14,31,15.70
2016,08,22,14,32,11.60
2016,08,22,14,33,10.20
2016,08,22,14,34,8.40
2016,08,22,14,35,8.80
2016,08,22,14,36,10.20
2016,08,22,14,37,9.10
2016,08,22,14,38,14.80
2016,08,22,14,39,11.70
2016,08,22,14,40,11.00
2016,08,22,14,41,10.00
2016,08,22,14,42,10.00
2016,08,22,14,43,10.30
2016,08,22,14,44,12.20
2016,08,22,14,45,17.40
2016,08,22,14,46,15.30
2016,08,22,14,47,12.90
2016,08,22,14,48,11.40
2016,08,22,14,49,12.90
2016,08,22,14,50,10.60
2016,08,22,14,51,12.60
2016,08,22,14,52,10.30
2016,08,22,14,53,10.30
2016,08,22,14,54,9.70
2016,08,22,14,55,8.90
2016,08,22,14,56,9.50
2016,08,22,14,57,15.20
2016,08,22,14,58,13.40
2016,08,22,14,59,13.70
2016,08,22,15,00,9.50
2016,08,22,15,01,12.70
2016,08,22,15,02,7.90
2016,08,22,15,03,9.40
2016,08,22,15,04,12.90
2016,08,22,15,05,13.70
2016,08,22,15,06,14.90
2016,08,22,15,07,17.50
2016,08,22,15,08,16.00
2016,08,22,15,09,13.40
2016,08,22,15,10,13.20
2016,08,22,15,11,9.10
2016,08,22,15,12,12.30
2016,08,22,15,13,10.60
2016,08,22,15,14,11.40
2016,08,22,15,15,10.00
2016,08,22,15,16,11.50
2016,08,22,15,17,12.80
2016,08,22,15,18,10.10
2016,08,22,15,19,10.90
2016,08,22,15,20,7.50
2016,08,22,15,21,12.50
2016,08,22,15,22,16.50
2016,08,22,15,23,11.10
2016,08,22,15,24,11.10
2016,08,22,15,25,11.00
2016,08,22,15,26,10.90
2016,08,22,15,27,16.30
2016,08,22,15,28,12.90
2016,08,22,15,29,9.20
2016,08,22,15,30,8.50
2016,08,22,15,31,6.10
2016,08,22,15,32,8.20
2016,08,22,15,33,12.50
2016,08,22,15,34,10.00
2016,08,22,15,35,13.00
2016,08,22,15,36,15.10
2016,08,22,15,37,8.90
2016,08,22,15,38,12.70
2016,08,22,15,39,11.10
2016,08,22,15,40,17.30
2016,08,22,15,41,17.50
2016,08,22,15,42,14.40
2016,08,22,15,43,14.10
2016,08,22,15,44,14.70
2016,08,22,15,45,11.10
2016,08,22,15,46,9.30
2016,08,22,15,47,13.90
2016,08,22,15,48,14.10
2016,08,22,15,49,10.40
2016,08,22,15,50,8.50
2016,08,22,15,51,10.50
2016,08,22,15,52,11.00
2016,08,22,15,53,11.80
2016,08,22,15,54,8.30
2016,08,22,15,55,8.50
2016,08,22,15,56,10.80
2016,08,22,15,57,14.10
2016,08,22,15,58,11.90
2016,08,22,15,59,8.70
2016,08,22,16,00,10.60
2016,08,22,16,01,13.60
2016,08,22,16,02,15.00
2016,08,22,16,03,12.60
2016,08,22,16,04,8.00
2016,08,22,16,05,11.30
2016,08,22,16,06,13.90
2016,08,22,16,07,11.90
2016,08,22,16,08,7.60
2016,08,22,16,09,12.50
2016,08,22,16,10,13.90
2016,08,22,16,11,15.10
2016,08,22,16,12,9.00
2016,08,22,16,13,9.80
2016,08,22,16,14,6.10
2016,08,22,16,15,7.70
2016,08,22,16,16,9.90
2016,08,22,16,17,9.80
2016,08,22,16,18,7.70
2016,08,22,16,19,6.90
2016,08,22,16,20,6.30
2016,08,22,16,21,10.70
2016,08,22,16,22,9.50
2016,08,22,16,23,13.20
2016,08,22,16,24,13.00
2016,08,22,16,25,13.50
2016,08,22,16,26,13.10
2016,08,22,16,27,10.30
2016,08,22,16,28,10.70
2016,08,22,16,29,8.60
2016,08,22,16,30,7.10
2016,08,22,16,31,10.00
2016,08,22,16,32,14.90
2016,08,22,16,33,12.70
2016,08,22,16,34,14.40
2016,08,22,16,35,13.30
2016,08,22,16,36,10.40
2016,08,22,16,37,7.60
2016,08,22,16,38,8.80
2016,08,22,16,39,9.80
2016,08,22,16,40,7.80
2016,08,22,16,41,9.90
2016,08,22,16,42,12.30
2016,08,22,16,43,7.90
2016,08,22,16,44,9.30
2016,08,22,16,45,9.20
2016,08,22,16,46,9.20
2016,08,22,16,47,9.10
2016,08,22,16,48,9.80
2016,08,22,16,49,13.80
2016,08,22,16,50,11.30
2016,08,22,16,51,7.80
2016,08,22,16,52,9.40
2016,08,22,16,53,10.50
2016,08,22,16,54,9.10
2016,08,22,16,55,10.00
2016,08,22,16,56,9.70
2016,08,22,16,57,10.10
2016,08,22,16,58,10.60
2016,08,22,16,59,8.80
2016,08,22,17,00,7.90
2016,08,22,17,01,7.60
2016,08,22,17,02,8.90
2016,08,22,17,03,10.10
2016,08,22,17,04,7.50
2016,08,22,17,05,9.60
2016,08,22,17,06,12.00
2016,08,22,17,07,8.10
2016,08,22,17,08,10.80
2016,08,22,17,09,7.90
2016,08,22,17,10,8.00
2016,08,22,17,11,10.10
2016,08,22,17,12,8.20
2016,08,22,17,13,12.50
2016,08,22,17,14,13.10
2016,08,22,17,15,12.50
2016,08,22,17,16,9.50
2016,08,22,17,17,9.70
2016,08,22,17,18,13.70
2016,08,22,17,19,7.70
2016,08,22,17,20,8.20
2016,08,22,17,21,7.90
2016,08,22,17,22,6.90
2016,08,22,17,23,13.40
2016,08,22,17,24,12.50
2016,08,22,17,25,11.00
2016,08,22,17,26,8.20
2016,08,22,17,27,6.00
2016,08,22,17,28,7.30
2016,08,22,17,29,9.00
2016,08,22,17,30,7.50
2016,08,22,17,31,11.40
2016,08,22,17,32,11.00
2016,08,22,17,33,8.80
2016,08,22,17,34,9.20
2016,08,22,17,35,10.90
2016,08,22,17,36,12.30
2016,08,22,17,37,13.20
2016,08,22,17,38,10.60